This demonstration page uses our WeatherBlox Daily Observations layout. Learn more.

38.89511, -77.03637

Hourly Observations for July 28, 2017

Temp ( °F °C ) Dew Point ( °F °C ) Humidity (%) Winds ( mph kmh ) Pressure ( in mb ) Visibility ( mi km ) Precip ( " mm )
12:52 am 00:52 Mostly Cloudy 79 26.1 76 24.4 90 90 SSW 5 7 29.83 1010 10 16.09344 0 0
1:52 am 01:52 Cloudy with Light Rain 79 26.1 74 23.3 85 85 WNW 5 7 29.83 1010 10 16.09344 0.001 0.001
2:52 am 02:52 Mostly Clear 79 26.1 74 23.3 85 85 NW 8 13 29.8 1009 9 14.484096 0.001 0.001
3:52 am 03:52 Clear 77 25 73 22.8 88 88 NNW 8 13 29.8 1009 10 16.09344 0 0
4:52 am 04:52 Mostly Cloudy 77 25 72 22.2 85 85 WNW 5 7 29.83 1010 10 16.09344 0 0
5:52 am 05:52 Mostly Cloudy 76 24.4 72 22.2 88 88 NNW 7 11 29.83 1010 10 16.09344 0 0
6:19 am 06:19 Cloudy 76 24.4 72 22.2 88 88 W 7 11 29.83 1010 10 16.09344 0 0
6:22 am 06:22 Cloudy 76 24.4 72 22.2 88 88 WNW 7 11 29.83 1010 10 16.09344 0 0
6:38 am 06:38 Cloudy 76 24.4 72 22.2 88 88 NW 3 6 29.83 1010 10 16.09344 0 0
6:52 am 06:52 Cloudy 76 24.4 73 22.8 91 91 N 3 6 29.83 1010 9 14.484096 0 0
7:52 am 07:52 Mostly Cloudy 78 25.6 73 22.8 85 85 NNW 6 9 29.83 1010 9 14.484096 0 0
8:05 am 08:05 Mostly Cloudy 78 25.6 74 23.3 87 87 WNW 7 11 29.83 1010 9 14.484096 0 0
8:52 am 08:52 Cloudy 79 26.1 73 22.8 82 82 N 3 6 29.83 1010 9 14.484096 0 0
9:04 am 09:04 Cloudy 79 26.1 74 23.3 85 85 N 3 6 29.83 1010 8 12.874752 0 0
9:23 am 09:23 Cloudy 79 26.1 74 23.3 85 85 N 5 7 29.83 1010 8 12.874752 0 0
9:52 am 09:52 Cloudy 80 26.7 75 23.9 85 85 N 3 6 29.8 1009 7 11.265408 0 0
10:52 am 10:52 Cloudy with Light Rain 81 27.2 75 23.9 82 82 Calm 29.8 1009 7 11.265408 0.001 0.001
11:01 am 11:01 Cloudy with Light Rain 81 27.2 76 24.4 85 85 Calm 29.83 1010 6 9.656064 0.001 0.001
11:25 am 11:25 Cloudy with Light Rain 80 26.7 76 24.4 87 87 Calm 29.8 1009 2 3.218688 0.01 0.254
11:28 am 11:28 Cloudy with Heavy Rain 80 26.7 76 24.4 87 87 Calm 29.8 1009 2 3.218688 0.04 1.016
11:34 am 11:34 Cloudy with Light Rain 80 26.7 76 24.4 87 87 SW 3 6 29.8 1009 4 6.437376 0.05 1.27
11:52 am 11:52 Cloudy with Light Rain 80 26.7 77 25 90 90 WNW 7 11 29.8 1009 3 4.828032 0.05 1.27
11:55 am 11:55 Cloudy with Heavy Rain 79 26.1 77 25 94 94 W 8 13 29.8 1009 2.5 4.02336 0.01 0.254
12:00 pm 12:00 Cloudy with Rain 78 25.6 77 25 97 97 W 9 15 29.8 1009 1.75 2.816352 0.04 1.016
12:10 pm 12:10 Cloudy with Heavy Rain 77 25 77 25 100 100 WNW 10 17 29.8 1009 1 1.609344 0.13 3.302
12:26 pm 12:26 Cloudy with Light Rain 77 25 77 25 100 100 N 6 9 29.8 1009 2 3.218688 0.22 5.588
12:29 pm 12:29 Cloudy with Light Rain 77 25 77 25 100 100 W 6 9 29.8 1009 3 4.828032 0.22 5.588
12:32 pm 12:32 Cloudy with Light Rain 77 25 76 24.4 96 96 N 3 6 29.8 1009 4 6.437376 0.22 5.588
12:34 pm 12:34 Cloudy with Light Rain 77 25 76 24.4 96 96 Calm 29.8 1009 4 6.437376 0.22 5.588
12:38 pm 12:38 Cloudy with Light Rain 78 25.6 76 24.4 93 93 Calm 29.8 1009 4 6.437376 0.23 5.842
12:48 pm 12:48 Cloudy with Light Thunderstorms 77 25 75 24 94 94 NW 5 7 29.8 1009 7 11.265408 0.23 5.842
12:52 pm 12:52 Cloudy with Light Thunderstorms 77 25 75 23.9 94 94 NNW 6 9 29.8 1009 7 11.265408 0.23 5.842
12:56 pm 12:56 Cloudy with Light Thunderstorms 77 25 76 24.4 96 96 N 5 7 29.8 1009 8 12.874752 0.001 0.001
1:01 pm 13:01 Cloudy with Light Thunderstorms 77 25 75 23.9 94 94 N 7 11 29.8 1009 9 14.484096 0.001 0.001
1:06 pm 13:06 Mostly Cloudy with Light Rain 77 25 75 23.9 94 94 NNE 7 11 29.8 1009 8 12.874752 0.001 0.001
1:52 pm 13:52 Cloudy 76 24.4 75 23.9 97 97 NE 13 20 29.77 1008 8 12.874752 0.001 0.001
2:28 pm 14:28 Cloudy with Light Rain 76 24.4 75 23.9 97 97 ENE 13 20 29.77 1008 5 8.04672 0.01 0.254
2:46 pm 14:46 Cloudy with Light Rain 75 24 73 23 94 94 NE 8 13 29.77 1008 5 8.04672 0.02 0.508
2:52 pm 14:52 Cloudy with Rain 76 24.4 75 23.9 97 97 NNE 6 9 29.77 1008 3 4.828032 0.05 1.27
2:59 pm 14:59 Cloudy with Heavy Thunderstorms 75 23.9 74 23.3 96 96 NNE 5 7 29.77 1008 1.5 2.414016 0.04 1.016
3:11 pm 15:11 Cloudy with Heavy Thunderstorms 75 23.9 73 22.8 94 94 ENE 13 20 29.77 1008 1.25 2.01168 0.26 6.604
3:46 pm 15:46 Cloudy with Heavy Thunderstorms 73 23 73 23 100 100 SE 9 15 29.77 1008 1.25 2.01168 0.62 15.748
3:52 pm 15:52 Cloudy with Heavy Thunderstorms 74 23.3 73 22.8 97 97 SE 10 17 29.77 1008 1.25 2.01168 0.71 18.034
4:04 pm 16:04 Cloudy with Thunderstorms 73 22.8 72 22.2 96 96 ESE 13 20 29.77 1008 2.5 4.02336 0.08 2.032
4:07 pm 16:07 Cloudy with Thunderstorms 73 22.8 72 22.2 96 96 ESE 15 24 29.77 1008 3 4.828032 0.09 2.286
4:24 pm 16:24 Cloudy with Heavy Thunderstorms 74 23.3 72 22.2 94 94 E 13 20 29.77 1008 2.5 4.02336 0.16 4.064
4:36 pm 16:36 Cloudy with Heavy Thunderstorms 74 23.3 72 22.2 94 94 ENE 12 19 29.77 1008 2 3.218688 0.27 6.858
4:52 pm 16:52 Cloudy with Heavy Rain 73 22.8 72 22.2 96 96 ENE 13 20 29.74 1007 2 3.218688 0.38 9.652
4:56 pm 16:56 Cloudy with Heavy Rain 73 22.8 72 22.2 96 96 ENE 13 20 29.74 1007 1.5 2.414016 0.05 1.27
5:10 pm 17:10 Cloudy with Heavy Rain 74 23.3 71 21.7 91 91 ENE 12 19 29.77 1008 2.5 4.02336 0.16 4.064
5:18 pm 17:18 Cloudy with Heavy Rain 73 22.8 71 21.7 94 94 ENE 9 15 29.77 1008 1.5 2.414016 0.24 6.096
5:21 pm 17:21 Cloudy with Heavy Thunderstorms 73 22.8 71 21.7 94 94 E 8 13 29.74 1007 1.5 2.414016 0.28 7.112
5:52 pm 17:52 Cloudy with Thunderstorms 72 22.2 71 21.7 97 97 NE 13 20 29.74 1007 2.5 4.02336 0.59 14.986
6:02 pm 18:02 Cloudy with Light Thunderstorms 72 22.2 71 21.7 97 97 ENE 13 20 29.74 1007 5 8.04672 0.02 0.508
6:34 pm 18:34 Cloudy with Light Thunderstorms 73 22.8 72 22.2 96 96 ENE 9 15 29.74 1007 10 16.09344 0.02 0.508
6:52 pm 18:52 Cloudy with Light Thunderstorms 73 22.8 72 22.2 96 96 E 8 13 29.71 1006 8 12.874752 0.04 1.016
7:31 pm 19:31 Mostly Cloudy with Nearby Thunderstorms 73 22.8 71 21.7 94 94 ESE 9 15 29.71 1006 10 16.09344 0.04 1.016
7:41 pm 19:41 Cloudy with Light Rain 73 22.8 71 21.7 94 94 E 7 11 29.71 1006 10 16.09344 0.04 1.016
7:52 pm 19:52 Cloudy 74 23.3 72 22.2 94 94 N 8 13 29.71 1006 10 16.09344 0.04 1.016
8:00 pm 20:00 Cloudy 74 23.3 71 21.7 91 91 NNE 9 15 29.74 1007 10 16.09344 0 0
8:52 pm 20:52 Cloudy 74 23.3 71 21.7 91 91 E 8 13 29.71 1006 10 16.09344 0 0
9:07 pm 21:07 Cloudy 74 23.3 72 22.2 94 94 ESE 6 9 29.74 1007 10 16.09344 0 0
9:29 pm 21:29 Cloudy with Heavy Rain 73 22.8 72 22.2 96 96 ENE 6 9 29.71 1006 4 6.437376 0.02 0.508
9:35 pm 21:35 Cloudy with Heavy Rain 73 22.8 72 22.2 96 96 ENE 7 11 29.71 1006 2.5 4.02336 0.06 1.524
9:43 pm 21:43 Cloudy with Heavy Rain 73 22.8 72 22.2 96 96 N 3 6 29.71 1006 1.75 2.816352 0.23 5.842
9:50 pm 21:50 Cloudy with Heavy Rain 72 22 72 22 100 100 N 3 6 29.71 1006 2 3.218688 0.31 7.874
9:52 pm 21:52 Cloudy with Heavy Rain 72 22.2 72 22.2 100 100 Calm 29.71 1006 2 3.218688 0.34 8.636
9:55 pm 21:55 Cloudy with Heavy Rain 72 22.2 72 22.2 100 100 E 3 6 29.71 1006 1.5 2.414016 0.04 1.016
10:03 pm 22:03 Cloudy with Heavy Rain 72 22.2 72 22.2 100 100 ENE 6 9 29.71 1006 1.75 2.816352 0.22 5.588
10:06 pm 22:06 Cloudy with Heavy Rain 72 22.2 72 22.2 100 100 ENE 7 11 29.71 1006 3 4.828032 0.24 6.096
10:24 pm 22:24 Cloudy with Light Rain 72 22.2 72 22.2 100 100 ENE 9 15 29.71 1006 10 16.09344 0.29 7.366
10:40 pm 22:40 Cloudy with Light Rain 72 22.2 71 21.7 97 97 N 7 11 29.71 1006 10 16.09344 0.3 7.62
10:52 pm 22:52 Cloudy with Light Rain 73 22.8 71 21.7 94 94 NNE 8 13 29.68 1005 10 16.09344 0.3 7.62
10:59 pm 22:59 Cloudy 73 22.8 72 22.2 96 96 N 9 15 29.68 1005 10 16.09344 0.001 0.001
11:09 pm 23:09 Cloudy 73 22.8 72 22.2 96 96 NNE 13 20 29.68 1005 10 16.09344 0.001 0.001
11:26 pm 23:26 Cloudy with Rain 73 22.8 72 22.2 96 96 NNE 12 19 29.68 1005 7 11.265408 0.001 0.001
11:37 pm 23:37 Cloudy with Rain 73 22.8 72 22.2 96 96 NE 14 22 29.68 1005 4 6.437376 0.04 1.016
11:44 pm 23:44 Cloudy with Heavy Rain 73 22.8 72 22.2 96 96 NE 16 26 29.68 1005 3 4.828032 0.07 1.778
11:52 pm 23:52 Cloudy with Light Rain 73 22.8 72 22.2 96 96 NE 16 26 29.65 1004 4 6.437376 0.1 2.54

Powered by AerisWeather